Weather History for KOXI - November, 2011

Change the Weather History Date:

Wednesday, November 16, 2011

  Actual Average (KVPZ) Record (KVPZ)
Temperature  
Mean Temperature 40 °F 41 °F  
Max Temperature 48 °F 48 °F 66 °F (2001)
Min Temperature 33 °F 33 °F 21 °F (2005)
Degree Days  
Heating Degree Days 24 24  
Month to date heating degree days 335  
Since 1 July heating degree days 865  
Cooling Degree Days 0 0  
Month to date cooling degree days 0  
Year to date cooling degree days 713  
Moisture  
Dew Point 28 °F    
Average Humidity 64    
Maximum Humidity 96    
Minimum Humidity 41    
Precipitation  
Precipitation 0.00 in 0.11 in 0.16 in (2006)
Month to date precipitation 1.93  
Year to date precipitation 33.93  
Sea Level Pressure  
Sea Level Pressure 29.99 in    
Wind  
Wind Speed 8 mph (NW)    
Max Wind Speed 21 mph    
Max Gust Speed 25 mph    
Visibility 10 miles    
Events      
T = Trace of Precipitation, MM = Missing Value Source: NWS Daily Summary

Daily Weather History Graph

Daily Weather History Graph

Search for Another Location

Airport or City:

Trip Planner

Search our weather history database for the weather conditions in past years. The results will help you decide how hot, cold, wet, or windy it might be!

Date:

Astronomy

Nov. 16, 2011 Rise Set
Actual Time 6:35 AM CST 4:26 PM CST
Civil Twilight 6:06 AM CST 4:56 PM CST
Nautical Twilight 5:32 AM CST 5:29 PM CST
Astronomical Twilight 4:59 AM CST 6:02 PM CST
Moon 9:40 PM CST (11/16) 11:11 AM CST (11/16)
Length of Visible Light 10h 50m
Length of Day
9h 50m
Waning Gibbous, 70% of the Moon is Illuminated
Nov 16
Waning Gibbous
Nov 18
Last Quarter
Nov 25
New
Dec 2
First Quarter
Dec 10
Full

Hourly Weather History & Observations

Time (CST) Temp. Windchill Dew Point Humidity Pressure Visibility Wind Dir Wind Speed Gust Speed Precip Events Conditions
12:15 AM 48.9 °F - 47.5 °F 95% 29.82 in 4.0 mi WNW 8.1 mph - N/A   Scattered Clouds
12:35 AM 47.8 °F - 46.6 °F 95% 29.82 in 3.0 mi WNW 8.1 mph - N/A   Clear
12:55 AM 46.9 °F - 45.9 °F 96% 29.82 in 4.0 mi WNW 6.9 mph - N/A   Clear
1:15 AM 46.0 °F 43.9 °F 44.8 °F 95% 29.83 in 4.0 mi WNW 4.6 mph - N/A   Clear
1:35 AM 45.5 °F 43.2 °F 44.1 °F 95% 29.85 in 7.0 mi WNW 4.6 mph - N/A   Clear
1:55 AM 45.1 °F 42.0 °F 42.4 °F 90% 29.85 in 10.0 mi NW 5.8 mph - N/A   Clear
2:15 AM 44.8 °F 41.0 °F 39.7 °F 82% 29.86 in 10.0 mi NW 6.9 mph - N/A   Clear
2:35 AM 43.9 °F 40.5 °F 37.4 °F 78% 29.88 in 10.0 mi WNW 5.8 mph - N/A   Clear
2:55 AM 44.1 °F 42.5 °F 36.0 °F 73% 29.88 in 10.0 mi WNW 3.5 mph - N/A   Clear
3:15 AM 43.0 °F 39.5 °F 35.4 °F 75% 29.88 in 10.0 mi NW 5.8 mph - N/A   Clear
3:35 AM 41.4 °F 37.6 °F 35.8 °F 81% 29.89 in 10.0 mi NW 5.8 mph - N/A   Clear
3:55 AM 41.4 °F 37.6 °F 35.4 °F 79% 29.89 in 10.0 mi NW 5.8 mph - N/A   Clear
4:15 AM 40.3 °F 37.1 °F 35.6 °F 83% 29.89 in 10.0 mi NW 4.6 mph - N/A   Clear
4:35 AM 39.9 °F 37.8 °F 35.4 °F 84% 29.90 in 10.0 mi NW 3.5 mph - N/A   Clear
4:55 AM 40.3 °F - 35.2 °F 82% 29.90 in 10.0 mi Calm Calm - N/A   Clear
5:15 AM 40.1 °F - 34.7 °F 81% 29.90 in 10.0 mi Calm Calm - N/A   Clear
5:35 AM 38.5 °F 34.1 °F 34.7 °F 86% 29.92 in 10.0 mi NW 5.8 mph - N/A   Clear
5:55 AM 38.7 °F 35.2 °F 34.7 °F 86% 29.93 in 10.0 mi NW 4.6 mph - N/A   Clear
6:15 AM 37.8 °F 32.5 °F 34.2 °F 87% 29.93 in 10.0 mi NW 6.9 mph - N/A   Clear
6:35 AM 37.6 °F 32.3 °F 33.6 °F 86% 29.94 in 10.0 mi NW 6.9 mph - N/A   Clear
6:55 AM 37.8 °F 31.3 °F 32.5 °F 81% 29.95 in 10.0 mi NW 9.2 mph - N/A   Clear
7:15 AM 38.1 °F 31.2 °F 31.5 °F 77% 29.96 in 10.0 mi NW 10.4 mph - N/A   Clear
7:55 AM 38.3 °F 33.9 °F 30.9 °F 75% 29.99 in 10.0 mi WNW 5.8 mph - N/A   Clear
8:35 AM 39.6 °F 34.7 °F 30.7 °F 71% 30.00 in 10.0 mi WNW 6.9 mph - N/A   Clear
8:55 AM 39.7 °F 34.9 °F 30.7 °F 70% 30.01 in 10.0 mi West 6.9 mph - N/A   Clear
9:15 AM 39.4 °F 33.2 °F 30.0 °F 69% 30.01 in 10.0 mi West 9.2 mph - N/A   Clear
9:35 AM 40.6 °F 34.8 °F 29.1 °F 64% 30.01 in 10.0 mi WNW 9.2 mph - N/A   Clear
9:55 AM 41.9 °F 36.9 °F 28.4 °F 59% 30.01 in 10.0 mi WNW 8.1 mph - N/A   Clear
10:15 AM 42.6 °F 36.8 °F 26.8 °F 54% 30.01 in 10.0 mi NW 10.4 mph 21.9 mph N/A   Clear
10:35 AM 42.8 °F 35.1 °F 24.8 °F 49% 30.01 in 10.0 mi WNW 16.1 mph - N/A   Clear
10:55 AM 43.0 °F 35.7 °F 23.2 °F 46% 30.02 in 10.0 mi NNW 15.0 mph - N/A   Clear
11:15 AM 42.8 °F 35.8 °F 23.0 °F 46% 30.02 in 10.0 mi NNW 13.8 mph - N/A   Clear
11:35 AM 43.2 °F 35.9 °F 21.2 °F 42% 30.01 in 10.0 mi NNW 15.0 mph - N/A   Clear
11:55 AM 43.0 °F 36.4 °F 21.9 °F 43% 30.01 in 10.0 mi NNW 12.7 mph 18.4 mph N/A   Clear
12:15 PM 43.2 °F 37.4 °F 23.5 °F 46% 30.00 in 10.0 mi NW 10.4 mph 16.1 mph N/A   Clear
12:35 PM 43.5 °F 36.7 °F 22.6 °F 44% 30.00 in 10.0 mi NNW 13.8 mph 17.3 mph N/A   Clear
12:55 PM 43.5 °F 36.7 °F 21.9 °F 42% 30.01 in 10.0 mi NW 13.8 mph 24.2 mph N/A   Clear
1:15 PM 43.3 °F 36.1 °F 21.0 °F 41% 30.02 in 10.0 mi WNW 15.0 mph - N/A   Clear
1:35 PM 42.3 °F 34.8 °F 20.7 °F 42% 30.03 in 10.0 mi NW 15.0 mph 20.7 mph N/A   Clear
1:55 PM 41.2 °F 33.0 °F 21.0 °F 45% 30.04 in 10.0 mi WNW 16.1 mph - N/A   Clear
2:15 PM 41.5 °F 33.8 °F 20.8 °F 44% 30.04 in 10.0 mi NW 15.0 mph 19.6 mph N/A   Clear
2:35 PM 41.2 °F 31.9 °F 20.5 °F 44% 30.05 in 10.0 mi NW 20.7 mph - N/A   Clear
2:55 PM 40.6 °F 31.4 °F 18.5 °F 41% 30.05 in 10.0 mi NW 19.6 mph 25.3 mph N/A   Clear
3:15 PM 39.6 °F 31.0 °F 19.6 °F 45% 30.06 in 10.0 mi NNW 16.1 mph - N/A   Clear
3:35 PM 39.0 °F 30.6 °F 20.1 °F 47% 30.07 in 10.0 mi NNW 15.0 mph - N/A   Clear
3:55 PM 38.7 °F 30.9 °F 20.3 °F 48% 30.07 in 10.0 mi NNW 12.7 mph 18.4 mph N/A   Clear
4:15 PM 38.1 °F 31.7 °F 20.1 °F 48% 30.08 in 10.0 mi NW 9.2 mph - N/A   Clear
4:35 PM 37.0 °F 31.6 °F 20.7 °F 52% 30.09 in 10.0 mi NW 6.9 mph - N/A   Clear
4:55 PM 35.6 °F 30.7 °F 21.9 °F 58% 30.10 in 10.0 mi NW 5.8 mph - N/A   Clear
5:15 PM 35.8 °F 30.9 °F 21.4 °F 56% 30.10 in 10.0 mi WNW 5.8 mph - N/A   Clear
5:35 PM 36.5 °F 32.7 °F 20.3 °F 52% 30.11 in 10.0 mi WNW 4.6 mph - N/A   Clear
6:15 PM 34.5 °F 31.6 °F 20.5 °F 57% 30.13 in 10.0 mi West 3.5 mph - N/A   Clear
6:35 PM 33.8 °F 27.7 °F 21.0 °F 60% 30.12 in 10.0 mi West 6.9 mph - N/A   Clear
6:55 PM 34.7 °F 28.8 °F 20.5 °F 56% 30.13 in 10.0 mi West 6.9 mph - N/A   Clear
7:15 PM 34.9 °F 28.3 °F 20.5 °F 56% 30.13 in 10.0 mi West 8.1 mph - N/A   Clear
7:35 PM 34.9 °F 27.7 °F 18.7 °F 52% 30.12 in 10.0 mi West 9.2 mph - N/A   Clear
7:55 PM 34.9 °F 27.1 °F 17.8 °F 50% 30.13 in 10.0 mi West 10.4 mph - N/A   Clear
8:15 PM 34.9 °F 28.3 °F 17.8 °F 50% 30.13 in 10.0 mi West 8.1 mph - N/A   Clear
8:35 PM 34.7 °F 28.1 °F 17.4 °F 49% 30.13 in 10.0 mi West 8.1 mph - N/A   Clear
8:55 PM 34.3 °F 27.0 °F 17.4 °F 50% 30.13 in 10.0 mi West 9.2 mph - N/A   Clear
9:15 PM 34.2 °F 26.8 °F 17.2 °F 50% 30.13 in 10.0 mi West 9.2 mph - N/A   Clear
9:35 PM 33.1 °F 26.9 °F 17.6 °F 53% 30.13 in 10.0 mi West 6.9 mph - N/A   Clear
9:55 PM 32.5 °F 26.2 °F 17.6 °F 54% 30.13 in 10.0 mi West 6.9 mph - N/A   Clear
10:15 PM 32.0 °F 25.6 °F 17.6 °F 55% 30.12 in 10.0 mi West 6.9 mph - N/A   Clear
10:55 PM 31.5 °F 24.9 °F 16.9 °F 55% 30.12 in 10.0 mi West 6.9 mph - N/A   Clear
11:15 PM 31.8 °F 23.9 °F 16.5 °F 53% 30.12 in 10.0 mi West 9.2 mph - N/A   Clear
11:55 PM 30.4 °F 23.6 °F 17.2 °F 58% 30.13 in 10.0 mi West 6.9 mph - N/A   Clear